Regional Weather Roundup
Issued by NWS

Home | Current Version | Previous Version | Graphics & Text | Print | Product List | Glossary On
Versions: 1 2 3 4 5 6 7 8 9 10 11 12 13 14 15 16 17 18 19 20 21 22 23 24 25 26 27 28 29 30 31 32 33 34 35 36 37 38 39 40 41 42 43 44 45 46 47 48 49 50
000
ASUS43 KMPX 211310
RWRMN
WEATHER ROUNDUP FOR MINNESOTA
NATIONAL WEATHER SERVICE TWIN CITIES/CHANHASSEN MN
800 AM CDT SUN SEP 21 2014


NOTE: "FAIR" INDICATES FEW OR NO CLOUDS BELOW 12,000 FEET WITH NO
SIGNIFICANT WEATHER AND/OR OBSTRUCTIONS TO VISIBILITY. N/A MEANS
CURRENT SKY AND/OR WEATHER CONDITIONS ARE NOT AVAILABLE.

MNZ060>063-068>070-211400-
   Twin Cities Metro

CITY           SKY/WX    TMP DP  RH WIND       PRES   REMARKS
TWIN CITIES    MOCLDY    53  47  79 NW15      30.03R
ST PAUL        PTSUNNY   52  49  89 NW12      30.04R
CRYSTAL        CLOUDY    55  47  74 NW9       30.04R
BLAINE         PTCLDY    55  52  88 NW14G23   30.03R
LAKEVILLE      CLOUDY    52  46  82 NW16      30.03R
EDEN PRAIRIE   MOCLDY    53  48  83 NW16      30.03R
SOUTH ST PAUL  CLOUDY    54  49  83 NW13G21   30.03R
LAKE ELMO      CLOUDY    52  50  93 NW9       30.03R
$$
MNZ001>005-007-008-013>017-022>024-027-028-211400-
   Northwest Minnesota

CITY           SKY/WX    TMP DP  RH WIND       PRES   REMARKS
BEMIDJI        CLOUDY    51  50  97 NW8       30.09R
HALLOCK        CLOUDY    52  52 100 N12       30.13R FOG
ROSEAU         CLOUDY    54  48  82 NW3       30.11R
WARROAD        PTCLDY    50  46  87 NW5       30.11R
THIEF RVR FALL CLOUDY    52  48  87 N8        30.12R
CROOKSTON      CLOUDY    52  48  87 N9G16     30.15R
FOSSTON        CLOUDY    48  48 100 N7        30.12R
DETROIT LAKES  CLOUDY    50  50 100 NW12G17   30.13R
MOORHEAD       CLEAR     50  50 100 NW3       30.15R
PARK RAPIDS    CLOUDY    52  50  93 NW6       30.09R
MAHNOMEN       CLOUDY    50  49  97 NW9       30.12R
$$
MNZ006-009>011-018-025>026-211400-
   North Central Minnesota

CITY           SKY/WX    TMP DP  RH WIND       PRES   REMARKS
BAUDETTE       MOCLDY    51  49  92 N6        30.09R
FLAG ISLAND    CLEAR     52  48  87 N8        30.08R
INTL FALLS     PTCLDY    48  47  96 NW7       30.06R
WASKISH        MOCLDY    48  48 100 CALM      30.08R
BIG FORK       CLOUDY    48  46  93 MISG      30.07R
LONGVILLE      MOCLDY    50  48  93 NW3       30.06R
GRAND RAPIDS   CLOUDY    48  45  87 N13       30.05R
CRANE LAKE     CLOUDY    46  43  87 N8          N/A
ORR            CLOUDY    48  46  93 NW5       30.02R
COOK           CLOUDY    48  48 100 CALM      30.03R
WALKER         CLOUDY    49  49  97 W3        30.08R
$$
MNZ012-019>021-037-211400-
   Northeast Minnesota

CITY           SKY/WX    TMP DP  RH WIND       PRES   REMARKS
DULUTH         PTSUNNY   52  48  86 NW8       30.00R
ELY            PTSUNNY   45  43  93 N6        30.01R
HIBBING        MOCLDY    50  46  86 N7        30.04R
EVELETH        CLOUDY    52  48  87 NW7       30.03R
DULUTH HARBOR  PTSUNNY   55  52  88 N6        30.01R
TWO HARBORS    SUNNY     48  43  81 N3        29.98R
SILVER BAY     SUNNY     45  45 100 CALM      29.98R
GRAND MARAIS     N/A     50  42  74 CALM      29.97R
G MARAIS ARPRT CLOUDY    43  37  81 N9        29.96R
$$
MNZ029>031-032-039>041-046>048-054>057-064-211400-
   West Central Minnesota

CITY           SKY/WX    TMP DP  RH WIND       PRES   REMARKS
FERGUS FALLS   CLOUDY    52  48  87 N14       30.15R
WHEATON        CLEAR     48  45  87 NW7       30.17R
MORRIS         CLEAR     48  48 100 NW8       30.13R
ALEXANDRIA     MOCLDY    52  49  89 NW10      30.12R
ELBOW LAKE     CLOUDY    51  49  92 NW12      30.13R
WADENA         CLOUDY    52  48  87 NW8       30.10R
GLENWOOD       CLEAR     50  48  93 NW8       30.12R
APPLETON       CLEAR     52  46  82 NW12      30.14R
BENSON         CLEAR     48  48 100 N6        30.13R
ORTONVILLE     CLEAR     52  46  82 NW9       30.15R
MADISON        CLEAR     52  48  87 NW7       30.15R
WILLMAR        FAIR      50  48  93 NW6       30.13R
$$
MNZ033>034-036-042>043-049>051-058-059-211400-
   Central Minnesota

CITY           SKY/WX    TMP DP  RH WIND       PRES   REMARKS
ST CLOUD       CLEAR     52  47  83 NW9       30.07R
SAUK CENTRE    PTSUNNY   51  48  89 NW8       30.10R
PAYNESVILLE    MOCLDY    48  47  95 W8        30.11R
AITKIN         CLEAR     52  46  82 CALM      30.04S
PINE RIVER     MOCLDY    48  46  93 CALM      30.10R
BRAINERD       CLEAR     49  47  93 NW6       30.07R
STAPLES        CLOUDY    50  48  93 NW6       30.09R
LONG PRAIRIE   CLOUDY    50  46  87 W10       30.10R
LITTLE FALLS   MOCLDY    50  46  87 CALM      30.08R
LITCHFIELD     CLEAR     54  52  94 NW10      30.10R
BUFFALO        MOCLDY    52  46  82 NW8       30.08R
MAPLE LAKE     CLEAR     51  49  90 NW8       30.08R
$$
MNZ037-044-045-052-053-211400-
   East Central Minnesota

CITY           SKY/WX    TMP DP  RH WIND       PRES   REMARKS
PRINCETON      CLEAR     52  46  82 W7        30.06R
MORA           CLOUDY    50  46  87 N9        30.05R
CAMBRIDGE      PTCLDY    54  45  71 NW7       30.03R
RUSH CITY      MOSUNNY   50  48  91 NW9       30.04R
MOOSE LAKE     PTSUNNY   50  46  87 CALM      30.02R
HINCKLEY       FAIR      50  50 100 NW9       30.03R
CLOQUET        PTSUNNY   50  46  87 NW9       30.02R
MCGREGOR       CLOUDY    50  46  87 NW6       30.05R
$$
MNZ071>073-080-081-089-090-097-098-211400-
   Southwest Minnesota

CITY           SKY/WX    TMP DP  RH WIND       PRES   REMARKS
MONTEVIDEO     CLEAR     52  48  87 N8        30.14R
GRANITE FALLS  CLEAR     48  47  97 W8        30.15R
CANBY          CLEAR     52  47  84 NW9       30.17R
MARSHALL       CLEAR     52  45  76 NW10      30.13R
REDWOOD FALLS  CLEAR     51  49  92 NW8       30.11R
OLIVIA         CLEAR     50  46  87 NW5       30.11R
PIPESTONE      CLEAR     48  45  87 NW9       30.16R
WINDOM         CLEAR     52  46  82 NW14      30.12R
WORTHINGTON    CLEAR     52  45  76 NW13      30.15R
JACKSON        CLEAR     52  45  76 NW10G16   30.12R
TRACY          CLEAR     52  47  84 NW10      30.14R
SLAYTON        CLEAR     49  46  90 CALM      30.15R
$$
MNZ065>067-074>077-082>085-091>093-211400-
   South Central Minnesota

CITY           SKY/WX    TMP DP  RH WIND       PRES   REMARKS
MANKATO        CLEAR     52  45  76 NW13      30.06R
NEW ULM        CLEAR     52  52 100 NW13      30.08R
ST JAMES       CLEAR     52  48  87 NW12      30.10R
FAIRMONT       CLEAR     54  45  71 NW14G21   30.09R
GLENCOE        CLEAR     53  47  81 NW10G16   30.07R
FARIBAULT      CLEAR     54  46  76 NW9G18    30.04R
OWATONNA       PTSUNNY   52  48  87 NW12G17   30.04R
WASECA         CLEAR     50  45  81 NW14G20   30.06R
ALBERT LEA     SUNNY     54  50  87 NW12G18   30.03R
$$
MNZ078>079-086>088-094>096-211400-
   Southeast Minnesota

CITY           SKY/WX    TMP DP  RH WIND       PRES   REMARKS
ROCHESTER      CLOUDY    52  47  83 NW16G23   29.99R
RED WING       CLOUDY    54  50  87 NW9       29.99R
STANTON        PTSUNNY   55  48  77 NW13G22   30.01R
DODGE CENTER   CLOUDY    52  48  87 NW14      30.01R
WINONA         CLOUDY    54  50  87 NW17      29.95R
AUSTIN         MOSUNNY   52  48  87 NW17      30.00R
PRESTON        CLOUDY    52  50  93 NW13G21   29.97R
$$
ABBREVIATIONS USED IN REMARKS
   TC - TEMPERATURES IN CELSIUS
  WCI - WIND CHILL INDEX
   HX - HEAT INDEX
  VSB - VISIBILITY
$$



USA.gov is the U.S. government's official web portal to all federal, state and local government web resources and services.